Location: Holkham
(52.9500°N, 0.8167°E)
Time: 21:35:08
(UTC+00:00)

USA 245 - Pass Details

Date: 19 May 2025
Orbit: 292 x 1030 km, 97.9° (Epoch: 02 June)

Event Time Altitude Azimuth Distance (km) Brightness Sun altitude
Exits shadow 20:37:31 - 155° (SSE) 2,369 5.9 -5.7°
Reaches altitude 10° 20:38:22 10° 154° (SSE) 2,027 5.6 -5.8°
Maximum altitude 20:42:50 71° 71° (ENE) 791 4.0 -6.3°
Drops below altitude 10° 20:48:24 10° 349° (NNW) 2,515 7.7 -6.9°
Sets 20:51:02 0° 347° (NNW) 3,556 8.6 -7.1°
